Volver al catálogo

HAMMER

ActivoCienciaPO
NORAD 59148·PAYLOAD·🇪🇸 Spain

Lanzado Mar 4, 2024 desde Vandenberg Space Force Base

Loading…

Próximos Pases (próximas 24 horas)

TLE

ActualizadoSource: Space-Track

Época: Sep 14, 2026, 16:18 UTC

1 59148U 24043BC  26257.67978918  .00049706  00000-0  67826-3 0  9995
2 59148  97.5517  51.2646 0002961 241.0625 119.0333 15.57344887141711

Sigue HAMMER en tiempo real con AllMySat

Download on the App Store